Regional Weather Roundup
Issued by NWS

Home | Current Version | Previous Version | Graphics & Text | Print | Product List | Glossary On
Versions: 1 2 3 4 5 6 7 8 9 10 11 12 13 14 15 16 17 18 19 20 21 22 23 24 25 26 27 28 29 30 31 32 33 34 35 36 37 38 39 40 41 42 43 44 45 46 47 48 49 50
000
ASUS45 KSLC 262110
RWRUT

UTAH REGIONAL WEATHER ROUNDUP
NATIONAL WEATHER SERVICE SALT LAKE CITY UT
300 PM MDT THU MAR 26 2015

UTZ001>011-023>025-262200-

NORTHERN UTAH

CITY           SKY/WX    TMP DP  RH WIND       PRES   REMARKS
BRIGHAM CITY     N/A     57  25  28 W8        30.38F
HILL AFB       SUNNY     56  24  28 VRB7      30.38F
LOGAN          SUNNY     56  28  34 CALM      30.37F
OGDEN            N/A     57  25  29 W9        30.37F
PROVO AIRPORT  MOSUNNY   54  23  30 VRB5      30.38F
SALT LAKE CITY   N/A     59  26  28 NW6       30.38S
VERNAL         SUNNY     58  17  20 VRB5      30.26F
WENDOVER         N/A     57  25  28 CALM      30.38F
HEBER CITY       N/A     59  25  27 SW6       30.33F
WEST JORDAN    SUNNY     57  30  35 NW10      30.38F

$$

UTZ012>022-026-027-262200-

SOUTHERN/CENTRAL UTAH

CITY           SKY/WX    TMP DP  RH WIND       PRES   REMARKS
BLANDING         N/A     60  15  16 W5        30.35F
BRYCE CANYON     N/A     57  23  26 W5        30.37F
CEDAR CITY       N/A     61  20  20 CALM      30.32F
DELTA            N/A     59  21  23 CALM      30.36F
HANKSVILLE       N/A     64  19  17 NW6       30.30F
MILFORD          N/A     61  25  25 N16G24    30.34F
MOAB/CYNLANDS  SUNNY     62  12  14 VRB7      30.26F
PRICE            N/A     63  21  20 SE10      30.28F
ST GEORGE        N/A     72  25  17 S5        30.25F
KANAB            N/A     64  18  16 SE3       30.31

$$

REGIONAL REPORTS     COLORADO/ARIZONA

CITY           SKY/WX    TMP DP  RH WIND       PRES   REMARKS
CRAIG, CO      SUNNY     54  25  32 NW8       30.28F
GRAND JUNCTION SUNNY     59  17  19 SE5       30.26F
RIFLE          SUNNY     57  21  24 VRB5      30.26F
MONTROSE       SUNNY     57  17  21 SW5       30.30F
CORTEZ         SUNNY     66  16  14 W16G24    30.23F
PAGE, AZ         N/A     64  13  13 VRB3      30.29F
GRAND CANYON     N/A     62  14  15 NE8G20    30.34F
KINGMAN          N/A     76  18  11 MISG      30.21F
FLAGSTAFF        N/A     60   8  12 NE9G21    30.34F

$$

REGIONAL REPORTS    NEVADA/IDAHO/WYOMING

CITY           SKY/WX    TMP DP  RH WIND       PRES   REMARKS
LAS VEGAS, NV    N/A     79  22  12 E10       30.16F
ELY              N/A     62  25  24 MISG      30.36F
ELKO             N/A     62  29  28 VRB3      30.35F
POCATELLO, ID  MOSUNNY   59  33  37 W14       30.36F
BURLEY           N/A     58  33  39 VRB7      30.34F
EVANSTON, WY   SUNNY     56  27  32 W9G16     30.34F
ROCK SPRINGS   SUNNY     54  24  31 W22G36    30.26F
KEMMERER       SUNNY     46  28  49 W20G29    30.35S

$$


USA.gov is the U.S. government's official web portal to all federal, state and local government web resources and services.